[[{"header":{"parameterUnit":"m.s-1","parameterCategory":1,"la1":30.2992,"la2":30.254,"lo1":-89.0895,"lo2":-89.0443,"dy":0.0025,"dx":0.0025,"nx":19,"ny":19,"refTime":"2026-03-16T09:00:00:Z","depth":0,"parameterNumber":2,"parameterNumberName":"U-component_of_WINDS"},"data":[0,0,0,0.2294,0.2294,0.2308,0.2308,0.2319,0.2319,0,0,0,0,0,0,0,0,0,0,0,0.2285,0.2285,0.2294,0.2294,0.2308,0.2308,0.2319,0.2319,0,0,0,0,0,0,0,0,0,0,0,0.2285,0.2285,0.2284,0.2294,0.2308,0.2308,0.2319,0.2311,0,0,0,0,0,0,0,0,0,0,0.2298,0.2285,0.2285,0.2284,0.2294,0.2308,0.2308,0.231,0.2311,0.2309,0,0.2306,0,0.2312,0.2319,0.2319,0,0,0,0.2297,0.2285,0.2293,0.2284,0.2294,0.2308,0.2303,0.2311,0.2312,0.231,0.2306,0.2307,0.2313,0.2319,0.2319,0.2294,0.2294,0,0,0.2297,0.2285,0.2292,0.2293,0.229,0.2302,0.2303,0.2312,0.2306,0.2306,0.2307,0.2313,0.2319,0.2319,0.2295,0.2294,0,0,0,0.2292,0.2284,0.2292,0.2292,0.2296,0.2302,0.2304,0.2306,0.231,0.2307,0.2313,0.2319,0.2319,0.2295,0.2295,0.2269,0,0,0,0.2292,0.2281,0.2292,0.2284,0.2295,0.2301,0.2298,0.2309,0.231,0.2313,0.2319,0.2319,0.2295,0.2295,0.227,0.2258,0,0,0,0.2285,0.2281,0.2281,0.2284,0.2289,0.2301,0.2305,0.231,0.2314,0.2319,0.2319,0.2296,0.2295,0.2271,0.226,0.2248,0,0,0,0.2275,0.2258,0.228,0.2263,0.2289,0.2285,0.2305,0.2303,0.2305,0.2319,0.2295,0.2295,0.2272,0.2262,0.2249,0.2234,0.2228,0,0,0.2247,0.2254,0.2245,0.2266,0.2254,0.2284,0.2269,0.2282,0.2293,0.2293,0.2293,0.227,0.226,0.2248,0.2194,0.2188,0,0,0,0.2232,0.2225,0.2225,0.2226,0.2235,0.2242,0.2259,0.2263,0.2264,0.2291,0.2263,0.2257,0.2251,0.2244,0.2239,0.2234,0.2291,0.2291,0.2292,0.2173,0.2189,0.2176,0.2193,0.2194,0.2211,0.2213,0.2223,0.2238,0.2232,0.2231,0.2197,0.2189,0.2185,0.2179,0.2226,0.2226,0.2225,0.2225,0.2133,0.2125,0.2147,0.2142,0.2159,0.2154,0.217,0.2182,0.218,0.2198,0.2193,0.2211,0.2178,0.2174,0.2224,0.2224,0.2224,0.2224,0.2224,0.2095,0.2095,0.2101,0.2104,0.2105,0.2124,0.2121,0.2137,0.2152,0.2147,0.2148,0.2149,0.215,0.2147,0.2147,0.2146,0.2146,0.2146,0.2146,0.2054,0.2062,0.2058,0.2067,0.207,0.2075,0.2093,0.2096,0.2104,0.2116,0.2116,0.2132,0.2173,0.2182,0.2144,0.2145,0.2145,0.2145,0.2145,0.2005,0.2019,0.2012,0.2015,0.2027,0.2026,0.2047,0.2052,0.2057,0.2055,0.2073,0.2101,0.211,0.2114,0.2121,0.207,0.207,0.207,0.207,0.1973,0.1979,0.1976,0.1979,0.1985,0.2003,0.1995,0.2008,0.2025,0.2029,0.2039,0.2051,0.2055,0.2061,0.2066,0.2074,0.2011,0.2011,0.2011,0.1943,0.1951,0.194,0.1957,0.1968,0.1977,0.1969,0.1972,0.1994,0.2009,0.2032,0.2035,0.2055,0.2061,0.2075,0.2082,0.2096,0,0]},{"header":{"parameterUnit":"m.s-1","parameterCategory":1,"la1":30.2992,"la2":30.254,"lo1":-89.0895,"lo2":-89.0443,"dy":0.0025,"dx":0.0025,"nx":19,"ny":19,"refTime":"2026-03-16T09:00:00:Z","depth":0,"parameterNumber":3,"parameterNumberName":"V-component_of_WINDS"},"data":[0,0,0,-2.6229,-2.623,-2.6281,-2.6281,-2.6344,-2.6345,0,0,0,0,0,0,0,0,0,0,0,-2.6214,-2.6215,-2.6229,-2.623,-2.6281,-2.6281,-2.6344,-2.6345,0,0,0,0,0,0,0,0,0,0,0,-2.6214,-2.6215,-2.6215,-2.6231,-2.6281,-2.6281,-2.6344,-2.6306,0,0,0,0,0,0,0,0,0,0,-2.6257,-2.6244,-2.6215,-2.6215,-2.6231,-2.6281,-2.6281,-2.6304,-2.6309,-2.6321,0,-2.6333,0,-2.634,-2.6349,-2.6349,0,0,0,-2.623,-2.624,-2.6254,-2.6215,-2.6231,-2.628,-2.6258,-2.6307,-2.6311,-2.6327,-2.6334,-2.6336,-2.6341,-2.6349,-2.635,-2.6429,-2.6429,0,0,-2.6227,-2.6223,-2.6251,-2.6257,-2.625,-2.6256,-2.6259,-2.631,-2.6317,-2.6334,-2.6338,-2.6342,-2.635,-2.635,-2.6428,-2.6429,0,0,0,-2.622,-2.6221,-2.6234,-2.6255,-2.6264,-2.6258,-2.6261,-2.6315,-2.6319,-2.6339,-2.6343,-2.635,-2.6351,-2.6428,-2.6429,-2.6446,0,0,0,-2.6218,-2.6217,-2.6232,-2.623,-2.6263,-2.629,-2.6265,-2.6316,-2.6321,-2.6343,-2.635,-2.6352,-2.6428,-2.6428,-2.6445,-2.6455,0,0,0,-2.6211,-2.6216,-2.6223,-2.623,-2.6252,-2.6289,-2.6297,-2.6317,-2.6324,-2.6349,-2.6352,-2.6427,-2.6428,-2.6444,-2.6453,-2.6478,0,0,0,-2.6202,-2.6235,-2.6223,-2.6262,-2.6251,-2.6299,-2.6296,-2.6332,-2.6355,-2.6351,-2.6428,-2.6429,-2.6443,-2.6452,-2.6476,-2.6499,-2.6507,0,0,-2.6242,-2.624,-2.6263,-2.6254,-2.6304,-2.6292,-2.6344,-2.6368,-2.6373,-2.641,-2.6412,-2.6445,-2.6453,-2.6477,-2.6552,-2.6559,0,0,0,-2.6274,-2.6292,-2.6306,-2.6329,-2.635,-2.6369,-2.6387,-2.6396,-2.6428,-2.6392,-2.6459,-2.6464,-2.6478,-2.649,-2.6495,-2.6509,-2.6433,-2.6433,-2.6433,-2.6324,-2.6332,-2.6372,-2.6386,-2.6409,-2.6428,-2.6447,-2.6463,-2.6461,-2.6477,-2.6489,-2.6533,-2.6546,-2.6551,-2.6565,-2.6499,-2.6499,-2.6499,-2.6499,-2.6385,-2.6412,-2.6412,-2.6451,-2.6459,-2.6491,-2.6511,-2.6509,-2.6541,-2.6524,-2.6537,-2.652,-2.6558,-2.6571,-2.65,-2.65,-2.65,-2.65,-2.65,-2.642,-2.6435,-2.6447,-2.6485,-2.6512,-2.6524,-2.6557,-2.6561,-2.6565,-2.6577,-2.6592,-2.6592,-2.6594,-2.6584,-2.6584,-2.6584,-2.6584,-2.6584,-2.6584,-2.6453,-2.6467,-2.6494,-2.6522,-2.6539,-2.6563,-2.6584,-2.6601,-2.6621,-2.6622,-2.6622,-2.662,-2.6559,-2.6546,-2.6587,-2.6586,-2.6586,-2.6586,-2.6586,-2.6516,-2.6503,-2.6545,-2.6563,-2.6598,-2.6627,-2.6632,-2.6668,-2.6682,-2.6698,-2.6694,-2.6648,-2.6646,-2.6641,-2.663,-2.6691,-2.6691,-2.6691,-2.6691,-2.6548,-2.6548,-2.6594,-2.6623,-2.6651,-2.6662,-2.6711,-2.6729,-2.6744,-2.6754,-2.6745,-2.673,-2.6725,-2.6726,-2.672,-2.671,-2.6789,-2.6789,-2.6789,-2.6588,-2.6592,-2.6633,-2.665,-2.6678,-2.6702,-2.6749,-2.6782,-2.6797,-2.6794,-2.6762,-2.6758,-2.6734,-2.6725,-2.6722,-2.6712,-2.6693,0,0]}]]